Weather History for Cheboygan, MI

Change the Weather History Date:

Thursday, April 4, 2013

  Actual Average (KPLN) Record (KPLN)
Temperature  
Mean Temperature 36 °F -  
Max Temperature 45 °F 44 °F 73 °F (1981)
Min Temperature 26 °F 24 °F -5 °F (1954)
Degree Days  
Heating Degree Days 30    
Moisture  
Dew Point 23 °F    
Average Humidity 66    
Maximum Humidity 93    
Minimum Humidity 35    
Precipitation  
Precipitation 0.00 in - - ()
Sea Level Pressure  
Sea Level Pressure 30.01 in    
Wind  
Wind Speed 9 mph (SW)    
Max Wind Speed 23 mph    
Max Gust Speed 31 mph    
Visibility 8 miles    
Events Snow    
Averages and records for this station are not official NWS values.
T = Trace of Precipitation, MM = Missing Value Source: NWS Daily Summary

Daily Weather History Graph

Daily Weather History Graph

Search for Another Location

Airport:

Trip Planner

Search our weather history database for the weather conditions in past years. The results will help you decide how hot, cold, wet, or windy it might be!

Date:

Astronomy

Apr. 04, 2013 Rise Set
Actual Time 7:12 AM EDT 8:10 PM EDT
Civil Twilight 6:41 AM EDT 8:40 PM EDT
Nautical Twilight 6:05 AM EDT 9:17 PM EDT
Astronomical Twilight 5:27 AM EDT 9:55 PM EDT
Moon 3:55 AM EDT (4/4) 2:11 PM EDT (4/4)
Length of Visible Light 13h 59m
Length of Day
12h 58m
Waning Crescent, 34% of the Moon is Illuminated
Apr 4
Waning Crescent
Apr 10
New
Apr 18
First Quarter
Apr 25
Full
May 2
Last Quarter

Hourly Weather History & Observations

Time (EDT) Temp. Windchill Dew Point Humidity Pressure Visibility Wind Dir Wind Speed Gust Speed Precip Events Conditions
12:15 AM 28.4 °F 23.3 °F 15.1 °F 57% 30.23 in 10.0 mi SSW 4.6 mph - N/A   Clear
12:35 AM 28.8 °F 22.6 °F 15.8 °F 58% 30.22 in 10.0 mi South 5.8 mph - N/A   Clear
12:54 AM 28.9 °F 23.9 °F 15.8 °F 58% 30.21 in 10.0 mi South 4.6 mph - N/A   Clear
1:15 AM 28.9 °F 23.9 °F 16.0 °F 58% 30.20 in 10.0 mi South 4.6 mph - N/A   Clear
1:35 AM 28.6 °F 23.5 °F 16.2 °F 60% 30.20 in 10.0 mi South 4.6 mph - N/A   Clear
2:15 AM 28.4 °F 22.2 °F 16.5 °F 61% 30.18 in 10.0 mi South 5.8 mph - N/A   Clear
2:35 AM 28.4 °F 22.2 °F 16.2 °F 60% 30.17 in 10.0 mi South 5.8 mph - N/A   Clear
2:55 AM 28.0 °F 21.7 °F 15.6 °F 60% 30.16 in 10.0 mi South 5.8 mph - N/A   Clear
3:15 AM 27.3 °F 20.9 °F 15.4 °F 61% 30.15 in 10.0 mi SSE 5.8 mph - N/A   Clear
3:35 AM 26.6 °F 21.2 °F 15.8 °F 64% 30.14 in 10.0 mi SSE 4.6 mph - N/A   Clear
3:55 AM 26.1 °F 20.5 °F 15.8 °F 65% 30.13 in 10.0 mi SSE 4.6 mph - N/A   Clear
4:15 AM 27.9 °F 20.6 °F 12.4 °F 52% 30.12 in 10.0 mi SSW 6.9 mph - N/A   Clear
4:35 AM 30.0 °F 21.1 °F 11.1 °F 45% 30.10 in 10.0 mi SSW 10.4 mph - N/A   Clear
4:55 AM 30.2 °F 24.3 °F 11.3 °F 45% 30.10 in 10.0 mi SSW 5.8 mph - N/A   Clear
5:15 AM 30.6 °F 24.7 °F 12.2 °F 47% 30.09 in 10.0 mi SSW 5.8 mph - N/A   Clear
5:35 AM 31.8 °F 23.3 °F 13.3 °F 46% 30.07 in 10.0 mi SSW 10.4 mph - N/A   Scattered Clouds
5:55 AM 32.9 °F 24.1 °F 13.8 °F 45% 30.07 in 10.0 mi SW 11.5 mph 17.3 mph N/A   Overcast
6:15 AM 32.2 °F 23.8 °F 13.5 °F 46% 30.07 in 10.0 mi SW 10.4 mph - N/A   Scattered Clouds
6:35 AM 33.8 °F 24.3 °F 13.8 °F 44% 30.05 in 10.0 mi SW 13.8 mph 20.7 mph N/A   Mostly Cloudy
6:55 AM 34.3 °F 25.0 °F 14.2 °F 44% 30.04 in 10.0 mi SW 13.8 mph 18.4 mph N/A   Overcast
7:15 AM 34.2 °F 24.8 °F 13.5 °F 43% 30.04 in 10.0 mi SW 13.8 mph - N/A   Mostly Cloudy
7:35 AM 34.7 °F 25.5 °F 12.4 °F 40% 30.04 in 10.0 mi WSW 13.8 mph 19.6 mph N/A   Mostly Cloudy
7:55 AM 35.2 °F 25.8 °F 12.9 °F 40% 30.04 in 10.0 mi SW 15.0 mph 21.9 mph N/A   Overcast
8:15 AM 36.0 °F 27.1 °F 12.6 °F 38% 30.03 in 10.0 mi WSW 13.8 mph 17.3 mph N/A   Overcast
8:35 AM 36.9 °F 27.8 °F 13.1 °F 38% 30.03 in 10.0 mi WSW 15.0 mph 20.7 mph N/A   Overcast
8:55 AM 36.7 °F 28.4 °F 13.6 °F 39% 30.03 in 10.0 mi SW 12.7 mph 18.4 mph N/A   Overcast
9:15 AM 36.7 °F 27.2 °F 18.5 °F 48% 30.02 in 7.0 mi SW 16.1 mph 24.2 mph N/A Snow Light Snow
9:35 AM 37.4 °F 26.6 °F 20.5 °F 51% 30.01 in 10.0 mi WSW 21.9 mph 27.6 mph N/A   Overcast
9:55 AM 37.0 °F 28.5 °F 23.9 °F 59% 29.98 in 10.0 mi SW 13.8 mph 21.9 mph N/A   Overcast
10:15 AM 38.5 °F 31.1 °F 17.8 °F 43% 29.97 in 10.0 mi SW 11.5 mph 19.6 mph N/A   Overcast
10:34 AM 39.2 °F 32.0 °F 16.7 °F 40% 29.96 in 10.0 mi SW 11.5 mph 19.6 mph N/A   Overcast
10:55 AM 41.0 °F 32.2 °F 16.9 °F 38% 29.96 in 10.0 mi SW 18.4 mph 23.0 mph N/A   Overcast
11:15 AM 44.1 °F 36.5 °F 17.6 °F 35% 29.95 in 10.0 mi SW 17.3 mph 26.5 mph N/A   Mostly Cloudy
11:35 AM 44.6 °F 37.2 °F 18.7 °F 36% 29.95 in 10.0 mi WSW 17.3 mph 25.3 mph N/A   Mostly Cloudy
11:55 AM 45.5 °F 38.1 °F 19.6 °F 36% 29.94 in 10.0 mi WSW 18.4 mph 27.6 mph N/A   Overcast
12:34 PM 42.8 °F 34.8 °F 23.7 °F 47% 29.94 in 10.0 mi West 17.3 mph 31.1 mph N/A   Overcast
12:55 PM 41.9 °F 32.3 °F 23.5 °F 48% 29.94 in 10.0 mi WSW 23.0 mph 29.9 mph N/A   Overcast
1:15 PM 39.4 °F 30.7 °F 28.4 °F 65% 29.94 in 7.0 mi West 16.1 mph 25.3 mph N/A Snow Light Snow
1:35 PM 37.4 °F 29.3 °F 31.1 °F 78% 29.95 in 4.0 mi WSW 12.7 mph 23.0 mph N/A Snow Light Snow
1:55 PM 34.9 °F 27.1 °F 32.0 °F 89% 29.94 in 1.2 mi West 10.4 mph - N/A Snow Light Snow
2:15 PM 34.2 °F 25.7 °F 32.0 °F 92% 29.94 in 0.8 mi WSW 11.5 mph 18.4 mph N/A Snow Snow
2:35 PM 33.8 °F 26.4 °F 32.0 °F 93% 29.94 in 0.5 mi WSW 9.2 mph - N/A Snow Snow
2:54 PM 33.8 °F 25.8 °F 32.0 °F 93% 29.93 in 0.5 mi WSW 10.4 mph - N/A Snow Light Snow
3:15 PM 34.2 °F 24.8 °F 32.0 °F 92% 29.92 in 1.8 mi WSW 13.8 mph 18.4 mph N/A Snow Light Snow
3:35 PM 34.7 °F 27.5 °F 32.0 °F 90% 29.92 in 5.0 mi WSW 9.2 mph 21.9 mph N/A   Overcast
3:55 PM 35.1 °F 27.4 °F 32.2 °F 89% 29.92 in 5.0 mi WSW 10.4 mph 19.6 mph N/A   Overcast
4:15 PM 35.1 °F 27.4 °F 32.4 °F 90% 29.91 in 7.0 mi WSW 10.4 mph 17.3 mph N/A   Overcast
4:35 PM 35.4 °F 27.3 °F 32.5 °F 89% 29.90 in 7.0 mi SW 11.5 mph - N/A   Overcast
4:54 PM 35.6 °F 27.5 °F 32.9 °F 90% 29.91 in 7.0 mi WSW 11.5 mph - N/A   Overcast
5:07 PM 36.0 °F 28.5 °F 33.1 °F 89% 29.91 in 7.0 mi WSW 10.4 mph - N/A   Overcast
5:20 PM 36.5 °F 28.7 °F 33.3 °F 88% 29.91 in 7.0 mi WSW 11.5 mph - N/A   Overcast
5:51 PM 37.6 °F 30.0 °F 34.2 °F 87% 29.91 in 5.0 mi WSW 11.5 mph - N/A   Overcast
6:15 PM 37.4 °F 30.3 °F 33.8 °F 87% 29.92 in 5.0 mi WSW 10.4 mph 18.4 mph N/A   Overcast
6:35 PM 37.0 °F 30.4 °F 33.4 °F 87% 29.93 in 5.0 mi WSW 9.2 mph - N/A   Overcast
6:55 PM 37.0 °F 29.8 °F 33.4 °F 87% 29.93 in 5.0 mi WSW 10.4 mph 17.3 mph N/A   Overcast
7:15 PM 36.9 °F 30.1 °F 33.3 °F 87% 29.93 in 5.0 mi WSW 9.2 mph - N/A   Overcast
7:35 PM 36.9 °F 31.4 °F 33.1 °F 86% 29.94 in 5.0 mi WSW 6.9 mph - N/A   Overcast
7:55 PM 36.5 °F 31.8 °F 32.9 °F 87% 29.94 in 5.0 mi West 5.8 mph - N/A   Overcast
8:15 PM 36.1 °F 30.6 °F 32.9 °F 88% 29.94 in 5.0 mi WSW 6.9 mph - N/A   Overcast
8:35 PM 35.6 °F 31.7 °F 32.4 °F 88% 29.94 in 7.0 mi West 4.6 mph - N/A   Overcast
8:55 PM 35.2 °F 31.2 °F 32.2 °F 89% 29.95 in 5.0 mi West 4.6 mph - N/A   Mostly Cloudy
9:15 PM 35.2 °F 31.2 °F 32.4 °F 89% 29.96 in 5.0 mi West 4.6 mph - N/A   Mostly Cloudy
9:35 PM 35.1 °F 30.1 °F 32.2 °F 89% 29.97 in 5.0 mi West 5.8 mph - N/A   Overcast
9:55 PM 35.4 °F 29.0 °F 32.0 °F 87% 29.98 in 7.0 mi WNW 8.1 mph - N/A   Overcast
10:14 PM 35.6 °F 29.2 °F 31.1 °F 84% 29.98 in 10.0 mi WNW 8.1 mph - N/A   Overcast
10:35 PM 35.8 °F 28.8 °F 29.3 °F 77% 29.99 in 10.0 mi WNW 9.2 mph - N/A   Overcast
10:55 PM 34.7 °F 28.8 °F 27.9 °F 76% 29.99 in 10.0 mi West 6.9 mph - N/A   Mostly Cloudy
11:15 PM 33.4 °F 28.1 °F 27.5 °F 79% 29.99 in 10.0 mi West 5.8 mph - N/A   Mostly Cloudy
11:35 PM 33.4 °F 28.1 °F 27.1 °F 78% 29.99 in 10.0 mi WNW 5.8 mph - N/A   Overcast
11:55 PM 32.9 °F 25.9 °F 26.1 °F 76% 30.00 in 10.0 mi WNW 8.1 mph - N/A   Scattered Clouds